Tracking 29892 objects as of 21-Nov-2024
HD Live streaming from Space Station
objects crossing your sky now

NIMBUS 2 DEB

Track NIMBUS 2 DEB now!
10-day predictions


NORAD ID: 28205
Int'l Code: 1966-040T
Perigee: 1,032.2 km
Apogee: 1,112.6 km
Inclination: 100.3 °
Period: 106.5 minutes
Semi major axis: 7443 km
RCS: 0.0168 m2 (small)
Launch date: May 15, 1966
Source: United States (US)
Launch site: AIR FORCE WESTERN TEST RANGE (AFWTR)

Note: This is SATELLITE DEBRIS
Your satellite tracking list
Your tracking list is empty




NASA's NSSDC Master Catalog

Two Line Element Set (TLE):
1 28205U 66040T   24325.51681390  .00003544  00000-0  54278-2 0  9996
2 28205 100.3259 168.4160 0054030 253.9360 123.6327 13.51905024 15061
Source of the keplerian elements: AFSPC